Regional Weather Roundup
Issued by NWS

Home | Current Version | Previous Version | Graphics & Text | Print | Product List | Glossary Off
Versions: 1 2 3 4 5 6 7 8 9 10 11 12 13 14 15 16 17 18 19 20 21 22 23 24 25 26 27 28 29 30 31 32 33 34 35 36 37 38 39 40 41 42 43 44 45 46 47 48 49 50

000
ASUS43 KMPX 050001
RWRMN
WEATHER ROUNDUP FOR MINNESOTA
NATIONAL WEATHER SERVICE TWIN CITIES/CHANHASSEN MN
600 PM CST SUN DEC 04 2016


NOTE: "FAIR" INDICATES FEW OR NO CLOUDS BELOW 12,000 FEET WITH NO
SIGNIFICANT WEATHER AND/OR OBSTRUCTIONS TO VISIBILITY. N/A MEANS
CURRENT SKY AND/OR WEATHER CONDITIONS ARE NOT AVAILABLE.

MNZ060>063-068>070-050100-
   Twin Cities Metro

CITY           SKY/WX    TMP DP  RH WIND       PRES   REMARKS
TWIN CITIES    CLOUDY    38  32  79 SW8       29.75S
6HR MIN TEMP:  34; 6HR MAX TEMP:  38;

ST PAUL        LGT RAIN  36  34  92 SW12G18   29.77R
CRYSTAL        MOCLDY    36  31  82 SW8       29.73F
BLAINE         CLOUDY    37  37 100 SW8       29.73F
LAKEVILLE        N/A     36  36 100 SW5       29.76S
EDEN PRAIRIE   CLOUDY    37  33  85 SW8       29.75R
6HR MIN TEMP:  35; 6HR MAX TEMP:  38; 6HR PCP: TRACE;

SOUTH ST PAUL  CLOUDY    36  34  94 S8        29.75F
LAKE ELMO      MIX PCPN  34  34 100 SW6       29.75F WCI  29
$$
MNZ001>005-007-008-013>017-022>024-027-028-050100-
   Northwest Minnesota

CITY           SKY/WX    TMP DP  RH WIND       PRES   REMARKS
BEMIDJI        CLOUDY    30  28  92 W10       29.63S WCI  21
HALLOCK        LGT SNOW  30  30 100 W7        29.61S WCI  23
ROSEAU         MOCLDY    30  27  86 SW8       29.60S WCI  23
WARROAD        LGT SNOW  30  27  86 SW6       29.60F WCI  24
THIEF RVR FALL MIX PCPN  30  28  92 SW7       29.63F WCI  23
CROOKSTON      CLOUDY    30  30 100 W9        29.66S WCI  22
FOSSTON        CLOUDY    28  27  93 W12       29.64F FOG     WCI  18
DETROIT LAKES  MOCLDY    32  30  93 W10       29.68S WCI  24
MOORHEAD       PTCLDY    32  27  80 W10       29.70S WCI  24
PARK RAPIDS    CLOUDY    32  26  78 W12       29.65S WCI  23
$$
MNZ006-009>011-018-025>026-050100-
   North Central Minnesota

CITY           SKY/WX    TMP DP  RH WIND       PRES   REMARKS
BAUDETTE       CLOUDY    32  30  92 SE7       29.59F WCI  26
FLAG ISLAND    LGT SNOW  32  30  93 S17       29.57F WCI  21
INTL FALLS     LGT SNOW  31  28  89 SE9       29.63S VSB 3/4 WCI  23
6HR MIN TEMP:  30; 6HR MAX TEMP:  32; 6HR PCP:  0.01;

WASKISH        LGT SNOW  34  30  86 SW7       29.61F WCI  28
BIG FORK       LGT SNOW  32  30  93 SE3       29.63S
LONGVILLE      CLOUDY    32  30  93 SW8       29.63F WCI  25
GRAND RAPIDS   LGT SNOW  31  30  96 S6        29.65F FOG     WCI  25
CRANE LAKE     LGT SNOW  30  28  93 CALM      29.68F
COOK           LGT SNOW  30  28  93 CALM      29.65F
$$
MNZ012-019>021-037-050100-
   Northeast Minnesota

CITY           SKY/WX    TMP DP  RH WIND       PRES   REMARKS
DULUTH         LGT SNOW  31  30  96 S9        29.67F FOG     WCI  23
6HR MIN TEMP:  31; 6HR MAX TEMP:  31; 6HR PCP:  0.02;

ELY            LGT SNOW  30  28  93 SE5       29.66F WCI  25
HIBBING        LGT SNOW  29  28  96 SE6       29.64F FOG     WCI  23
EVELETH        MIX PCPN  32  31  97 SE3       29.67F
DULUTH HARBOR  MIX PCPN  34  32  93 S5        29.71F WCI  30
TWO HARBORS    LGT SNOW  36  30  80 S6        29.67F
SILVER BAY     LGT SNOW  34  32  93 S3        29.68F
GRAND MARAIS     N/A     35  34  96 S14       29.73F WCI  26
G MARAIS ARPRT MIX PCPN  28  25  86 SE6       29.68F VSB 1/2 WCI  22
$$
MNZ029>031-032-039>041-046>048-054>057-064-050100-
   West Central Minnesota

CITY           SKY/WX    TMP DP  RH WIND       PRES   REMARKS
FERGUS FALLS   CLOUDY    32  32 100 W3        29.75S
MORRIS         CLOUDY    36  30  80 SW14      29.73S
ALEXANDRIA     CLOUDY    34  31  88 W7        29.72S WCI  28
ELBOW LAKE     CLOUDY    32  32  99 CALM      29.72S
WADENA         CLOUDY    30  27  86 W10G17    29.68S WCI  21
GLENWOOD       CLOUDY    34  30  86 W8        29.73S WCI  27
APPLETON       PTCLDY    34  30  86 W8        29.76S WCI  27
BENSON         CLOUDY    34  30  86 W8        29.75S WCI  27
ORTONVILLE     CLEAR     34  28  80 CALM      29.75S
MADISON        CLEAR     36  34  93 W6        29.77S
WILLMAR        CLOUDY    36  32  87 W10       29.77S
$$
MNZ033>034-036-042>043-049>051-058-059-050100-
   Central Minnesota

CITY           SKY/WX    TMP DP  RH WIND       PRES   REMARKS
ST CLOUD       CLOUDY    34  33  96 W12G17    29.72S WCI  25
6HR MIN TEMP:  33; 6HR MAX TEMP:  35; 6HR PCP:  0.02;

PAYNESVILLE    CLOUDY    34  34 100 W9        29.75S WCI  26
AITKIN         CLOUDY    36  30  80 SW8       29.64F
PINE RIVER     CLOUDY    32  32 100 SW5       29.69S WCI  27
BRAINERD       CLOUDY    33  32  96 SW9       29.67F WCI  25
STAPLES        CLOUDY    30  28  93 W9        29.68S WCI  22
LONG PRAIRIE   CLOUDY    32  30  93 SW8       29.71S WCI  25
LITTLE FALLS   CLOUDY    34  30  86 W5        29.71S WCI  30
LITCHFIELD     CLOUDY    36  34  93 W6        29.76S
BUFFALO        MOCLDY    36  32  86 W8        29.76R
MAPLE LAKE     MOCLDY    36  33  90 W8        29.75R
$$
MNZ037-044-045-052-053-050100-
   East Central Minnesota

CITY           SKY/WX    TMP DP  RH WIND       PRES   REMARKS
PRINCETON      CLOUDY    36  34  93 SW3       29.72S
MORA           CLOUDY    34  32  93 SW8       29.72S WCI  27
CAMBRIDGE      CLOUDY    36  34  93 S5        29.70F FOG
RUSH CITY      CLOUDY    34  32  93 S5        29.72S WCI  30
MOOSE LAKE     CLOUDY    32  32 100 S3        29.66F FOG
HINCKLEY       CLOUDY    34  34 100 S6        29.69F FOG     WCI  29
CLOQUET        LGT SNOW  30  30 100 CALM      29.67F
MCGREGOR       CLOUDY    32  32 100 S6        29.66F WCI  26
$$
MNZ071>073-080-081-089-090-097-098-050100-
   Southwest Minnesota

CITY           SKY/WX    TMP DP  RH WIND       PRES   REMARKS
MONTEVIDEO     MOCLDY    36  30  80 NW5       29.79S
GRANITE FALLS  CLEAR     34  32  90 W7        29.79S WCI  28
CANBY          CLEAR     36  31  83 SW10      29.78S
MARSHALL       CLEAR     35  31  85 W10       29.78R WCI  27
REDWOOD FALLS  CLEAR     34  29  82 W8        29.78R WCI  27
OLIVIA         PTCLDY    34  32  93 W6        29.76S WCI  29
PIPESTONE      CLEAR     36  30  80 W7        29.78S
WINDOM         CLEAR     36  30  80 CALM      29.79S
WORTHINGTON    CLEAR     35  31  85 SW9       29.80S WCI  28
JACKSON        CLEAR     34  30  86 SW8       29.81R WCI  27
TRACY          CLEAR     36  32  87 SW9       29.78R
SLAYTON        CLEAR     35  32  90 SW12      29.79S WCI  26
$$
MNZ065>067-074>077-082>085-091>093-050100-
   South Central Minnesota

CITY           SKY/WX    TMP DP  RH WIND       PRES   REMARKS
MANKATO        MOCLDY    39  33  79 W8        29.78S
NEW ULM        CLEAR     36  32  87 W8        29.78S
ST JAMES       CLEAR     36  30  80 SW7       29.80F
FAIRMONT       CLEAR     38  32  79 W9        29.80F
GLENCOE        CLEAR     35  34  94 W3        29.76S
FARIBAULT      CLOUDY    36  34  93 W5        29.79R
OWATONNA       PTCLDY    36  32  87 S13       29.78S
WASECA         MOCLDY    36  34  93 S13       29.79S
ALBERT LEA     CLOUDY    39  37  93 SW9       29.80S
$$
MNZ078>079-086>088-094>096-050100-
   Southeast Minnesota

CITY           SKY/WX    TMP DP  RH WIND       PRES   REMARKS
ROCHESTER      CLOUDY    33  32  96 SW13      29.80S WCI  24
6HR MIN TEMP:  33; 6HR MAX TEMP:  34;

RED WING       CLOUDY    36  32  87 SW3       29.77F
STANTON        CLOUDY    35  32  89 S3        29.76S
DODGE CENTER   CLOUDY    34  32  93 S9        29.79S WCI  26
WINONA         CLOUDY    36  32  87 SW5       29.82F
PRESTON        CLOUDY    32  30  92 SW7       29.81F WCI  26
$$
ABBREVIATIONS USED IN REMARKS
   TC - TEMPERATURES IN CELSIUS
  WCI - WIND CHILL INDEX
   HX - HEAT INDEX
  VSB - VISIBILITY
$$



USA.gov is the U.S. government's official web portal to all federal, state and local government web resources and services.